Temp
14 13 11 9 8 8 8 8 8 10 11 12 13 13 14 14 15 17 19 20 19 19 18 19 23 24 25 26 28 29 27 27 28 30 32 35 35 37 39 38 39 39 39 39 36
14 13 10 9 8 8 8 8 8 11 13 14 14 15 14 14 13 19 19 20 19 18 18 24 25 27 26 26 27 26 26 27 29 31 32 33 34 36 36 37 37 37 38 38 36
13 12 9 8 8 8 8 8 8 11 13 14 15 15 15 14 18 23 20 20 19 18 19 22 24 25 25 27 27 27 26 28 29 30 31 32 32 34 34 35 37 36 36 38 37
13 11 9 8 8 8 8 8 8 11 13 14 15 15 15 13 21 20 20 20 18 17 19 23 25 25 25 25 28 26 27 28 28 29 29 29 31 31 32 34 37 37 37 37 38
12 11 8 8 7 8 8 8 9 12 14 14 15 14 14 20 22 19 19 18 17 19 22 24 24 25 24 26 26 26 27 28 28 28 28 29 28 29 30 32 34 36 36 36 36
12 12 11 8 7 8 8 8 12 14 15 15 14 13 14 19 22 19 20 19 20 22 23 24 24 25 24 24 24 25 26 26 27 27 27 27 28 28 29 31 32 33 34 35 36
12 12 11 9 7 7 8 10 13 15 15 14 12 11 17 21 23 23 21 22 22 23 24 23 24 24 24 23 25 25 24 25 25 26 26 27 26 26 29 29 30 31 32 34 34
12 12 11 8 8 8 11 13 15 15 15 14 13 13 18 22 22 23 23 23 23 23 23 22 22 23 22 23 23 23 23 22 25 26 26 26 24 26 28 29 28 29 31 32 33
13 13 11 9 10 13 15 14 13 14 13 14 12 16 20 21 22 22 23 23 23 23 23 23 22 21 22 21 21 23 21 23 24 27 26 26 25 27 28 28 28 29 30 31 32
13 13 11 11 14 16 16 15 13 13 13 14 17 19 22 24 24 23 23 23 23 24 24 23 22 21 22 21 20 22 23 24 23 24 25 24 25 27 28 28 28 29 29 30 31
13 13 12 13 15 16 16 16 19 17 17 21 22 23 24 24 24 24 23 23 24 23 21 23 21 18 21 22 21 22 23 23 24 24 24 23 24 25 27 28 28 29 29 30 30
13 13 13 15 16 17 15 21 21 21 20 23 24 24 24 23 22 24 24 23 23 22 23 22 21 22 22 22 22 23 22 22 24 25 25 24 23 25 26 27 28 28 29 30 31
13 14 15 16 17 16 19 22 21 21 20 22 24 23 24 23 22 23 24 23 22 22 22 21 22 23 22 21 20 21 21 22 22 24 24 23 23 23 25 26 27 28 29 30 30
13 14 15 16 16 21 23 21 21 20 19 22 23 24 24 24 23 25 25 23 22 21 22 22 23 22 21 20 22 20 23 22 22 21 19 22 19 22 23 25 26 27 29 29 31
13 13 16 14 15 22 22 21 21 20 18 25 24 25 25 24 24 25 24 22 20 21 20 19 20 20 20 20 22 21 22 22 21 20 20 21 20 22 24 24 25 26 27 29 31
14 13 16 19 16 20 21 21 21 19 19 24 25 24 24 24 24 24 24 23 23 20 20 20 22 21 21 22 22 22 20 21 21 21 18 20 21 21 23 23 26 27 27 29 30
14 14 15 16 21 21 21 22 20 20 25 23 22 23 23 23 23 22 21 20 19 17 17 20 21 22 22 21 22 20 18 17 16 17 17 21 19 21 23 24 25 27 28 29 30
14 15 17 17 21 20 20 21 19 23 22 22 21 22 22 22 22 21 20 19 20 19 18 17 17 20 21 20 19 19 18 16 17 18 18 16 15 19 24 25 26 28 29 29 29
15 19 19 21 21 20 21 21 21 21 21 20 20 21 22 22 20 19 18 18 19 19 16 16 17 19 20 20 15 17 17 19 17 17 17 20 23 24 24 25 25 26 28 29 29
11 17 22 21 21 21 21 19 21 22 21 20 18 20 18 19 18 16 17 19 17 17 16 15 14 18 20 20 20 19 20 15 16 16 18 21 21 20 21 24 25 26 27 29 30
13 22 22 22 21 22 21 21 21 21 21 19 18 18 19 18 17 16 16 18 16 16 16 13 11 15 16 16 17 18 16 18 17 17 17 18 19 22 22 23 23 26 27 30 30
16 22 22 22 23 22 21 20 18 20 21 20 19 19 18 18 16 16 16 16 15 12 11 13 11 12 15 18 19 19 18 17 14 16 19 18 17 20 21 23 24 24 26 27 31
17 23 22 22 19 19 20 20 21 20 20 19 18 19 19 17 13 16 16 17 14 12 10 10 11 12 16 19 13 17 19 19 18 17 16 16 18 20 21 22 22 22 24 27 30
17 21 22 22 22 19 19 19 19 21 20 20 19 20 18 16 17 13 14 14 14 13 14 11 9 11 12 15 16 12 14 15 16 16 18 18 16 18 19 19 19 20 22 27 29
20 20 18 18 18 19 20 20 20 19 20 20 19 19 17 14 14 14 16 14 16 14 11 10 11 12 12 14 15 16 15 16 16 18 17 18 15 16 18 18 19 21 21 23 28
17 16 17 16 19 19 20 20 19 19 19 18 17 18 18 15 14 13 14 14 13 14 11 9 11 12 14 17 16 16 17 18 18 18 18 18 18 17 19 19 20 21 21 20 23
16 15 16 16 18 19 20 19 19 19 19 19 19 17 17 16 16 16 16 16 16 11 9 7 9 11 14 18 17 14 15 18 18 20 20 19 20 18 19 18 19 18 16 17 18
Height
812 808 804 801 797 794 790 787 784 781 779 778 775 773 770 767 763 762 759 755 755 754 752 751 746 744 742 739 735 730 743 735 728 721 708 685 686 667 658 668 667 668 673 671 677
812 808 804 800 796 792 789 786 782 780 779 777 775 772 769 766 764 756 753 751 754 753 752 745 739 736 739 736 732 736 737 728 716 708 704 693 687 680 676 670 673 673 671 674 677
812 808 803 798 794 790 787 784 781 779 778 777 775 772 769 767 760 744 750 751 753 753 753 748 744 740 739 729 727 728 732 723 715 706 700 699 693 683 683 682 670 680 682 672 673
812 807 802 797 793 789 785 782 779 777 776 775 774 771 769 769 758 747 748 750 752 754 753 745 739 736 735 733 720 729 718 716 714 709 708 708 698 696 689 681 665 668 673 673 672
811 805 800 795 791 786 783 780 777 775 774 774 773 771 770 761 749 748 749 749 752 753 749 743 740 737 738 729 723 723 718 713 711 711 710 708 707 705 698 682 674 669 670 673 671
809 803 797 792 788 784 780 777 774 773 773 772 771 771 772 762 745 747 751 751 751 750 746 742 738 736 737 735 735 724 720 716 712 711 712 715 708 709 699 690 685 680 677 673 672
807 801 795 789 784 780 777 774 772 771 770 769 768 771 766 751 743 743 748 748 747 745 743 742 740 740 738 737 725 723 727 720 717 715 715 711 716 711 701 696 693 688 682 676 677
805 799 792 786 781 776 774 772 770 769 768 766 766 770 758 744 742 740 743 744 743 741 742 744 743 742 740 735 732 733 729 733 713 708 706 713 721 706 699 701 699 693 688 682 679
802 796 789 783 778 774 771 770 769 768 766 766 767 765 750 741 741 740 741 741 739 739 738 738 743 743 740 739 737 727 734 722 710 695 698 700 707 696 694 695 696 695 690 685 682
800 793 785 779 775 772 769 768 767 767 766 766 762 761 744 735 734 736 737 738 737 734 732 734 738 741 734 734 738 721 714 709 713 704 700 703 694 683 683 687 688 686 687 684 682
798 789 782 777 774 771 768 769 765 765 763 751 745 740 733 732 730 733 733 733 731 729 735 726 737 747 729 720 725 722 709 708 699 698 701 705 700 690 678 675 677 677 678 676 677
795 787 780 776 773 770 769 762 762 762 754 741 736 735 733 733 734 729 728 730 728 730 722 726 730 720 717 717 713 708 714 708 694 688 691 695 699 686 681 675 669 669 668 667 665
793 784 779 775 772 770 764 761 761 758 757 738 731 732 730 734 732 724 722 724 726 726 722 724 716 709 717 718 722 713 713 710 704 692 687 692 692 688 681 670 666 662 659 655 658
792 783 779 775 775 764 759 761 760 759 760 736 729 726 728 725 725 714 713 720 723 726 718 714 705 711 713 714 706 714 700 704 703 706 717 695 712 692 680 670 664 659 654 651 648
790 783 779 775 772 761 764 760 759 759 770 722 724 719 720 723 715 709 712 718 726 722 727 723 717 718 715 711 701 706 701 700 701 707 706 692 697 679 665 667 661 655 651 644 640
788 782 779 775 772 766 762 760 759 768 759 727 719 724 722 715 710 708 711 712 713 720 717 712 704 704 699 696 696 693 705 700 698 698 709 683 687 675 669 663 650 643 642 636 636
785 781 778 777 769 765 762 757 763 759 722 735 737 728 725 717 717 718 721 722 727 734 726 707 699 686 689 696 689 699 715 718 719 713 700 672 685 667 650 644 641 633 633 630 632
782 778 775 773 768 765 763 760 767 735 743 742 741 731 721 718 722 723 725 728 716 720 721 722 714 693 690 696 701 697 709 717 705 693 687 696 698 665 633 629 626 620 619 623 631
780 773 770 769 766 765 760 756 759 755 750 752 744 735 725 720 729 733 734 728 719 719 734 729 716 697 695 694 716 704 705 695 702 701 694 668 640 628 626 623 623 618 613 614 620
784 774 764 766 764 763 758 767 753 748 753 754 756 746 750 738 741 750 742 724 729 727 731 732 729 702 692 691 689 695 687 710 700 701 684 654 649 656 640 624 617 612 608 598 605
783 765 764 763 761 757 756 756 755 754 753 757 757 755 747 747 750 750 747 730 738 734 735 743 746 717 710 703 700 693 698 686 691 687 686 672 661 637 637 629 626 608 595 585 592
786 769 762 762 756 757 757 757 758 752 749 750 750 746 748 746 747 748 744 739 742 750 750 743 744 723 706 685 680 678 685 689 700 686 665 668 668 643 638 628 622 620 597 587 584
791 766 763 762 774 770 761 759 749 750 747 751 752 746 743 748 761 744 740 732 741 747 751 749 739 723 693 675 697 684 674 670 676 678 679 681 666 643 642 632 625 627 609 595 585
795 775 767 764 762 770 770 762 758 744 745 747 746 739 744 746 743 751 740 738 738 738 734 741 746 733 716 698 694 706 694 688 683 681 668 667 672 651 650 645 637 630 622 596 588
792 784 788 782 776 771 761 755 754 754 748 746 744 740 743 749 743 738 730 733 726 727 735 742 731 721 710 697 690 683 685 682 677 666 670 664 676 670 658 646 645 635 623 610 592
805 803 795 792 775 767 756 753 758 752 750 747 748 739 737 744 743 733 730 726 728 722 731 740 726 712 694 672 672 669 663 662 658 658 657 657 656 656 653 645 642 640 624 622 610
811 808 801 787 773 769 760 760 755 751 747 743 736 740 736 736 729 720 716 710 711 724 737 745 735 717 685 660 661 671 667 656 651 646 645 650 642 648 649 653 645 651 648 638 625
Wind_Speed
27 27 26 25 24 23 22 20 17 16 14 15 16 19 21 22 22 16 13 3 2 5 8 12 12 11 14 13 18 18 16 19 26 27 24 20 23 25 20 22 25 19 20 5 19
27 27 26 26 24 24 22 20 17 15 12 13 15 19 21 21 19 19 7 1 3 6 11 8 8 5 9 14 15 17 17 25 23 23 22 24 26 24 24 18 17 12 16 13 19
27 28 27 26 25 24 22 20 17 14 11 12 15 19 18 18 13 4 9 3 2 4 9 12 10 9 12 14 16 19 21 23 25 25 23 25 27 26 24 24 17 15 18 24 15
29 29 28 26 26 24 22 20 17 13 12 12 14 18 15 10 8 11 7 3 3 4 10 12 10 12 13 14 15 18 22 23 24 25 25 26 25 26 24 24 16 15 18 22 22
31 31 29 28 26 24 22 20 17 12 12 14 14 16 9 8 16 14 6 6 3 6 11 11 11 13 15 16 17 18 19 19 20 22 23 25 26 25 27 26 23 16 17 18 21
33 34 33 30 26 25 23 19 15 13 14 15 16 10 7 15 8 12 6 7 5 8 13 13 14 13 16 17 18 18 20 21 20 19 20 24 27 23 28 26 25 23 21 14 14
34 35 36 32 28 26 22 17 13 12 14 14 10 6 11 17 8 6 6 10 10 13 10 15 15 15 15 19 17 19 19 19 20 19 24 20 25 28 27 26 25 24 21 18 16
35 36 37 31 28 24 17 12 9 10 10 9 3 8 8 13 14 18 11 12 15 13 11 13 14 16 16 16 21 21 21 20 20 21 23 23 26 27 26 25 27 26 22 20 18
37 40 38 31 26 18 10 10 7 6 6 3 6 10 11 3 10 10 9 18 13 13 14 13 10 14 16 16 16 16 17 23 25 23 20 25 29 26 25 25 26 24 23 22 18
39 43 38 29 21 13 10 11 8 4 2 7 13 8 9 9 2 4 11 12 15 18 16 14 13 14 15 15 15 18 18 17 17 21 19 18 20 22 21 25 26 23 26 23 22
42 45 36 24 17 9 13 7 3 6 14 14 20 16 17 13 9 15 14 16 17 19 16 16 15 15 21 18 19 23 20 23 19 21 21 19 21 25 22 22 25 24 25 25 26
45 43 30 19 10 6 9 6 12 11 15 20 15 10 9 6 9 10 15 15 18 19 17 14 16 21 18 24 24 22 20 24 23 22 20 19 25 24 22 23 20 21 22 25 23
48 38 22 16 10 10 11 7 15 16 9 11 2 7 3 6 10 17 5 12 14 16 18 19 20 17 20 17 18 22 19 22 24 23 23 22 24 23 23 23 25 22 25 22 26
49 31 16 16 9 14 9 16 16 13 5 6 13 4 7 15 18 6 6 10 15 19 20 18 17 18 15 22 20 23 22 23 22 21 18 20 18 22 22 24 24 26 23 24 21
47 28 11 8 14 9 16 17 13 6 3 5 2 3 9 15 14 6 7 7 14 16 14 22 21 22 24 23 16 18 16 18 20 19 20 28 13 18 19 24 25 25 24 27 19
45 22 11 10 11 15 19 15 6 4 3 7 5 16 13 15 10 12 7 6 11 18 21 24 22 22 22 22 21 20 15 21 20 18 17 27 19 21 20 25 24 24 28 25 21
41 16 8 11 10 20 15 9 6 6 17 10 21 19 19 11 11 14 16 13 10 12 14 19 21 20 20 21 18 13 17 10 7 9 16 18 11 18 23 25 29 24 27 23 17
40 9 10 12 19 15 12 9 11 19 16 20 20 22 21 7 13 18 14 16 16 11 13 11 7 6 1 16 10 15 12 10 11 11 12 5 9 9 26 23 24 24 24 22 21
34 7 7 6 14 9 8 9 10 15 15 18 21 16 17 21 17 18 21 17 5 6 6 7 7 12 16 7 2 7 10 19 19 17 15 17 26 17 19 18 23 24 23 28 29
25 13 3 13 11 9 8 4 11 12 14 17 17 15 21 20 17 17 14 10 12 7 9 6 12 13 16 9 17 20 19 5 8 7 15 16 11 8 13 9 17 22 23 29 30
6 5 4 18 11 8 5 10 13 13 11 12 17 17 17 16 16 18 7 17 13 12 12 4 5 9 14 9 19 12 11 12 9 8 7 13 6 9 16 14 16 16 21 16 27
10 6 6 19 5 8 9 11 10 12 11 14 11 14 16 18 18 19 7 11 10 9 8 7 5 11 22 27 24 21 17 16 5 6 12 10 5 10 16 17 12 23 21 16 26
8 11 4 8 5 7 11 13 8 14 12 13 12 16 18 16 7 11 17 17 10 2 4 2 4 7 10 2 14 9 17 18 14 15 19 12 8 6 12 15 13 13 13 21 8
5 7 8 10 9 14 14 13 14 12 12 12 18 16 11 16 14 13 28 8 8 14 25 11 3 11 12 20 16 11 14 13 11 9 14 11 11 15 17 16 19 19 19 14 11
4 6 6 7 11 14 15 13 16 17 14 17 16 16 20 17 22 19 19 23 22 9 5 3 5 12 21 25 23 23 20 20 21 18 14 16 5 7 11 14 15 18 22 19 17
6 5 7 15 15 18 14 13 15 18 18 14 16 20 18 16 16 25 21 22 13 7 4 3 5 12 23 22 18 22 21 20 22 21 17 17 11 13 8 10 15 17 21 25 8
13 13 7 9 14 14 14 18 18 18 8 18 18 16 18 19 23 26 22 22 15 7 6 2 3 5 7 14 9 2 9 18 17 18 15 15 12 10 5 7 15 11 15 17 21
Wind_Direction
359 356 349 345 341 339 337 332 327 323 321 324 327 328 327 324 324 297 258 115 245 273 292 283 243 242 245 247 243 247 243 249 249 256 262 266 268 277 274 230 246 221 257 181 129
357 353 346 342 338 335 333 327 321 317 314 319 322 326 325 327 315 284 159 129 229 276 314 306 299 247 248 246 233 234 247 246 253 265 268 270 274 275 276 260 237 227 252 245 144
356 351 344 340 336 333 328 323 316 309 304 309 318 323 320 329 299 241 140 120 187 288 295 303 291 269 273 260 240 237 245 257 264 269 270 278 284 295 283 276 225 219 246 259 178
357 351 344 338 334 328 324 319 311 302 299 304 312 321 319 310 309 143 133 137 206 289 290 279 265 260 263 266 266 249 257 259 265 270 278 280 289 289 290 286 285 240 216 247 251
356 351 343 339 334 327 323 317 308 300 296 301 306 315 327 246 259 142 141 154 198 256 283 297 303 298 287 295 296 266 270 268 267 271 273 275 274 278 283 289 296 274 267 228 256
354 351 347 340 333 328 323 316 309 298 297 298 299 301 258 269 156 144 170 178 245 261 271 280 296 304 296 290 283 282 287 287 284 279 265 265 264 265 268 278 284 287 285 265 261
353 351 347 340 334 328 324 317 310 306 301 297 281 240 264 253 294 192 199 247 263 273 288 293 306 304 296 290 279 281 268 269 264 261 267 271 265 250 258 267 271 276 277 267 270
353 350 347 339 333 328 325 317 313 316 314 306 243 214 266 285 299 272 233 255 259 241 251 279 294 288 279 282 281 271 271 268 262 256 245 244 252 254 251 247 256 263 269 266 253
353 350 345 340 334 329 319 307 319 321 311 257 192 216 275 191 240 266 238 259 283 268 261 259 279 276 280 260 259 248 252 256 260 253 243 238 239 244 247 249 237 249 258 259 250
353 348 344 341 337 329 305 301 290 258 234 228 258 247 236 316 338 202 252 271 277 275 283 252 238 260 246 241 251 260 256 259 285 290 298 303 285 248 240 238 243 236 234 245 251
353 348 344 341 336 322 307 288 244 198 235 282 289 279 282 321 268 262 265 242 261 262 269 257 237 240 259 263 293 291 284 280 270 254 270 283 291 286 280 236 233 228 243 226 228
353 348 345 341 323 280 289 286 1 313 309 294 257 272 272 297 289 275 255 249 259 275 269 263 254 261 251 287 284 280 285 281 279 278 276 255 248 263 269 270 260 236 233 242 215
351 347 343 341 314 271 244 355 330 326 298 295 229 284 342 325 278 273 350 303 288 282 279 277 277 292 277 254 268 270 264 272 285 290 289 279 272 261 268 260 264 253 244 237 232
350 346 341 337 306 317 12 336 330 342 278 216 202 154 267 230 263 218 268 274 280 283 286 283 287 274 288 288 262 246 250 265 275 283 273 281 274 275 273 245 242 254 230 241 224
350 345 328 318 305 326 337 328 335 271 286 24 31 141 248 263 294 314 192 250 268 288 312 283 284 282 274 266 285 285 293 283 282 269 279 263 257 265 247 243 258 235 254 226 227
348 341 322 339 254 298 328 325 287 251 280 332 359 335 321 300 307 337 320 301 281 283 271 275 277 273 264 262 252 268 267 262 267 265 259 256 258 258 250 258 242 223 241 221 220
345 330 277 304 316 331 329 292 263 259 4 10 337 332 309 307 341 340 329 305 295 296 282 288 288 267 248 260 259 300 248 266 256 233 252 258 275 270 269 242 257 219 229 220 217
339 310 267 254 321 327 308 275 275 356 355 344 334 308 289 8 358 335 326 316 303 292 296 292 309 360 50 246 262 233 264 244 264 264 287 209 225 237 241 245 243 245 226 206 205
340 332 258 5 334 328 289 312 2 341 338 335 324 319 330 344 353 345 335 300 332 341 310 317 275 337 309 282 128 289 264 261 276 272 267 271 277 231 292 234 234 252 241 210 206
331 294 283 336 322 302 290 316 322 354 344 332 322 340 332 318 343 344 320 307 339 1 349 338 286 282 291 310 256 266 269 260 217 272 268 266 313 305 299 268 250 239 255 215 193
288 274 60 348 305 271 296 356 337 340 335 326 311 311 311 334 329 316 278 301 9 345 327 292 223 282 311 261 266 277 271 236 259 249 272 290 284 308 330 316 327 275 282 202 178
306 323 22 336 318 1 350 339 297 310 306 319 310 313 320 325 319 310 294 312 34 336 315 326 288 286 278 275 266 256 247 253 234 263 257 275 251 340 332 326 301 308 250 279 182
310 303 100 324 0 352 328 329 342 323 326 333 324 316 310 322 328 288 303 308 344 282 249 247 247 297 299 216 29 283 263 244 256 267 268 272 283 321 322 316 309 314 252 260 234
291 318 336 317 7 353 337 315 319 337 339 332 308 296 318 304 313 303 298 308 284 285 277 211 240 239 262 277 293 284 296 290 281 264 272 270 312 320 325 338 326 312 322 275 240
326 346 4 306 327 317 299 305 320 328 335 323 316 318 332 320 310 293 304 303 307 324 115 162 265 249 259 268 271 269 261 261 262 262 270 284 213 257 294 312 303 302 305 308 269
351 336 329 302 314 293 306 344 325 323 325 330 315 305 312 306 292 299 306 298 296 251 164 186 262 290 291 280 282 263 251 248 251 255 264 265 262 229 289 310 296 291 322 320 232
345 331 296 290 306 325 335 323 316 324 323 306 320 337 320 314 315 302 287 273 253 183 178 189 282 301 281 322 330 327 284 263 255 252 251 251 271 151 239 327 292 333 317 302 117